This is the latest recevied weather packets stored in our database for station/object W0CHP-13. If no packets are shown the sender has not sent any weather packets the latest 10 day(s).
| Time | Temp. | Humidity | Pressure | Rain* | Wind** | Luminosity | Snow |
|---|---|---|---|---|---|---|---|
| 1788527115 | 24.44° C | 97% | 1009.6 hPa | - | - | 51 W/m² | - |
| 1788526518 | 24.44° C | 97% | 1009.6 hPa | - | - | 40 W/m² | - |
| 1788525916 | 23.89° C | 97% | 1009.6 hPa | - | - | 41 W/m² | - |
| 1788525315 | 23.89° C | 97% | 1009.2 hPa | - | - | 42 W/m² | - |
| 1788524716 | 23.89° C | 97% | 1009.6 hPa | - | - | 42 W/m² | - |
| 1788524118 | 23.89° C | 97% | 1009.2 hPa | - | - | 22 W/m² | - |
| 1788523516 | 23.89° C | 97% | 1009.6 hPa | - | - | 13 W/m² | - |
| 1788522915 | 23.89° C | 97% | 1009.6 hPa | - | - | 7 W/m² | - |
| 1788522316 | 23.89° C | 96% | 1009.6 hPa | - | - | 4 W/m² | - |
| 1788521719 | 23.89° C | 95% | 1009.2 hPa | - | - | 2 W/m² | - |
| 1788521116 | 23.89° C | 94% | 1009.2 hPa | - | - | 0 W/m² | - |
| 1788520518 | 24.44° C | 93% | 1008.9 hPa | - | - | 0 W/m² | - |
| 1788519916 | 24.44° C | 92% | 1008.9 hPa | - | - | 0 W/m² | - |
| 1788519318 | 25° C | 91% | 1008.9 hPa | - | - | 0 W/m² | - |
| 1788518718 | 25° C | 92% | 1008.6 hPa | - | - | 0 W/m² | - |
| 1788518116 | 25° C | 91% | 1008.9 hPa | - | - | 0 W/m² | - |
| 1788517518 | 25° C | 91% | 1008.9 hPa | - | - | 0 W/m² | - |
| 1788516917 | 24.44° C | 92% | 1008.5 hPa | - | - | 0 W/m² | - |
| 1788516315 | 25° C | 92% | 1008.9 hPa | - | - | 0 W/m² | - |
| 1788515717 | 25° C | 92% | 1008.6 hPa | - | - | 0 W/m² | - |
| 1788515115 | 25° C | 91% | 1008.5 hPa | - | - | 0 W/m² | - |
| 1788514517 | 25.56° C | 89% | 1008.5 hPa | - | - | 0 W/m² | - |
| 1788513915 | 25.56° C | 86% | 1008.9 hPa | - | - | 0 W/m² | - |
| 1788513347 | 26.11° C | 86% | 1008.5 hPa | - | - | 0 W/m² | - |
| 1788512716 | 26.67° C | 83% | 1008.5 hPa | - | - | 0 W/m² | - |
* Rain since midnight (hover to see other rain measurements)
** Current wind speed in m/s (hover to see current wind gust speed)